Meteo Giornale » Osservazioni meteo Cuba » Santiago De Cuba Oriente
ore: 01:50 - Osservazioni Meteo Santiago De Cuba Oriente
Lat. 19° 58' N Lon. 75° 51' W Alt. 69 metri s.l.m.
26 °C
Sereno
Temp. 24 Ore
26 °C
33 °C
Nord/Nord-Est
9.3 Km/h
Dew point 25 °C
Umidità 94 %
Visibilità 11 Km
Il sole sorge alle ore 06:47
Il sole tramonta alle ore 19:18
| Data e Ora | Cielo e Fenomeni | T °C | DP °C | Um. % | Pres. hPa | Vis. km | Vento km/h | |
|---|---|---|---|---|---|---|---|---|
| Oggi h: 01:50 | Sereno | 26 | 25 | 94 | 1014 | 11 | N/NE 9.3 | |
| Oggi h: 00:50 | Sereno | 26 | 24 | 88 | 1015 | 10 | N 9.3 | |
| Ieri h: 23:50 | Sereno | 26 | 25 | 94 | 1015 | 10 | N/NO 9.3 | |
| Ieri h: 22:50 | Sereno | 26 | 24 | 88 | 1015 | 10 | NO 11.1 | |
| Ieri h: 21:50 | Sereno | 26 | 24 | 88 | 1015 | 10 | NE 11.1 | |
| Ieri h: 20:50 | Sereno | 26 | 24 | 88 | 1014 | 10 | N 11.1 | |
| Ieri h: 19:50 | Sereno | 27 | 26 | 94 | 1014 | 0 | N 5.5 | |
| Ieri h: 18:50 | Sereno | 30 | 26 | 79 | 1013 | 0 | S/SE 7.4 | |
| Ieri h: 17:50 | Sereno | 31 | 26 | 74 | 1013 | 0 | SE 13 | |
| Ieri h: 16:50 | Sereno | 32 | 26 | 70 | 1012 | 0 | S/SE 13 | |
| Ieri h: 15:50 | Nuvoloso | 33 | 26 | 66 | 1012 | 9 | S/SE 16.7 | |
| Ieri h: 14:50 | Nuvoloso | 33 | 25 | 62 | 1012 | 9 | S 14.8 | |
| Ieri h: 13:50 | Nuvoloso | 32 | 24 | 62 | 1013 | 9 | S/SE 14.8 | |
| Ieri h: 12:50 | Nuvoloso | 33 | 24 | 59 | 1014 | 9 | S 13 | |
| Ieri h: 11:50 | Nuvoloso | 33 | 24 | 59 | 1014 | 9 | S/SO 13 | |
| Ieri h: 10:50 | Nuvoloso | 32 | 24 | 62 | 1015 | 9 | S 11.1 | |
| Ieri h: 09:50 | Poco Nuvoloso | 32 | 23 | 59 | 1014 | 9 | S 9.3 | |
| Ieri h: 08:50 | Poco Nuvoloso | 30 | 23 | 66 | 1014 | 9 | N 9.3 | |
| Ieri h: 07:50 | Poco Nuvoloso | 27 | 23 | 78 | 1014 | 9 | N/NO 9.3 | |
| Ieri h: 06:50 | Sereno | 26 | 23 | 83 | 1013 | 0 | N 7.4 | |
| Ieri h: 05:50 | Sereno | 26 | 23 | 83 | 1012 | 0 | N/NO 11.1 | |
| Ieri h: 04:50 | Sereno | 27 | 23 | 78 | 1012 | 0 | N/NO 7.4 | |
| Ieri h: 03:50 | Sereno | 27 | 24 | 83 | 1013 | 0 | N/NO 9.3 | |
| Ieri h: 02:50 | Sereno | 27 | 24 | 83 | 1013 | 0 | N 5.5 | |



